Location: Unspecified
(0.0000°N, 0.0000°E)
Time: 17:53:58
(UTC+00:00)

STARLINK 1022 - Pass Details

Date: 18 January 2020
Orbit: 548 x 551 km, 53.0° (Epoch: 17 January)

Event Time Altitude Azimuth Distance (km) Brightness Sun altitude
Rises 05:04:00 0° 177° (S) 2,714 7.5 -15.5°
Reaches altitude 10° 05:08:29 10° 132° (SE) 1,816 7.4 -14.4°
Maximum altitude 05:08:56 10° 125° (SE) 1,806 7.5 -14.3°
Drops below altitude 10° 05:09:24 10° 119° (ESE) 1,815 7.7 -14.2°
Sets 05:13:51 0° 74° (ENE) 2,703 8.1 -13.2°
